Location: Lac Lasalle
(46.0398°N, 74.1576°W)
Time: 10:40:15
(UTC-04:00)

ISS - Visible Passes

Search period start: 21 May 2019 00:00
Search period end: 31 May 2019 00:00
Orbit: 407 x 410 km, 51.6° (Epoch: 21 May)

Date Brightness Start Highest point End Pass type
(mag) Time Alt. Az. Time Alt. Az. Time Alt. Az.
21 May -1.9 00:37:27 10° WNW 00:40:28 31° N 00:42:21 18° ENE visible
21 May -1.6 02:14:02 10° WNW 02:14:58 18° WNW 02:14:58 18° WNW visible
21 May -2.6 22:09:06 10° W 22:12:17 45° NNW 22:15:30 10° ENE visible
21 May -1.8 23:46:24 10° WNW 23:49:22 29° N 23:52:16 10° ENE visible
22 May -2.1 01:23:05 10° WNW 01:24:57 29° NW 01:24:57 29° NW visible
22 May -3.3 21:18:00 10° WSW 21:21:16 64° NNW 21:24:34 10° ENE visible
22 May -1.8 22:55:16 10° WNW 22:58:14 30° N 23:01:13 10° ENE visible
23 May -2.6 00:32:10 10° WNW 00:35:19 41° NNE 00:35:19 41° NNE visible
23 May -2.0 22:04:05 10° WNW 22:07:07 33° N 22:10:09 10° ENE visible
23 May -2.1 23:41:10 10° WNW 23:44:13 33° N 23:45:47 21° ENE visible
24 May -1.3 01:17:43 10° WNW 01:18:29 16° WNW 01:18:29 16° WNW visible
24 May -2.3 21:12:52 10° W 21:16:00 39° NNW 21:19:09 10° ENE visible
24 May -1.9 22:50:07 10° WNW 22:53:05 30° N 22:56:04 10° ENE visible
25 May -2.6 00:26:44 10° WNW 00:29:01 40° NW 00:29:01 40° NW visible
25 May -1.8 21:58:59 10° WNW 22:01:56 29° N 22:04:54 10° ENE visible
25 May -2.9 23:35:46 10° WNW 23:38:59 47° NNE 23:39:35 41° NE visible
26 May -1.9 21:07:46 10° WNW 21:10:46 31° N 21:13:47 10° ENE visible
26 May -2.4 22:44:46 10° WNW 22:47:52 37° NNE 22:50:11 16° ENE visible
27 May -2.0 00:21:19 10° WNW 00:22:54 25° WNW 00:22:54 25° WNW visible
27 May -2.1 21:53:42 10° WNW 21:56:43 31° N 21:59:43 10° ENE visible
27 May -3.8 23:30:16 10° WNW 23:33:31 82° N 23:33:31 82° N visible
28 May -3.3 22:39:16 10° WNW 22:42:31 56° NNE 22:44:09 26° E visible
29 May -1.4 00:16:03 10° W 00:16:52 15° W 00:16:52 15° W visible
29 May -2.7 21:48:14 10° WNW 21:51:23 41° NNE 21:54:33 10° E visible
29 May -3.1 23:24:49 10° WNW 23:27:31 42° WSW 23:27:31 42° WSW visible
30 May -3.9 22:33:42 10° WNW 22:37:01 79° SSW 22:38:12 36° SE visible
